This is the latest recevied weather packets stored in our database for station/object W6SNO-1. If no packets are shown the sender has not sent any weather packets the latest 10 day(s).
| Time | Temp. | Humidity | Pressure | Rain* | Wind** | Luminosity | Snow |
|---|---|---|---|---|---|---|---|
| 1777514774 | 18.89° C | 65% | 1016.1 hPa | 0 mm | - | 40 W/m² | - |
| 1777514471 | 18.89° C | 65% | 1016.3 hPa | 0 mm | - | 40 W/m² | - |
| 1777514168 | 18.33° C | 65% | 1016.1 hPa | 0 mm | - | 49 W/m² | - |
| 1777513864 | 18.89° C | 64% | 1016 hPa | 0 mm | - | 50 W/m² | - |
| 1777513562 | 18.89° C | 64% | 1016.1 hPa | 0 mm | - | 47 W/m² | - |
| 1777513258 | 18.89° C | 65% | 1016 hPa | 0 mm | - | 62 W/m² | - |
| 1777512954 | 18.89° C | 65% | 1016.1 hPa | 0 mm | - | 68 W/m² | - |
| 1777512651 | 18.89° C | 65% | 1015.8 hPa | 0 mm | - | 80 W/m² | - |
| 1777512348 | 19.44° C | 64% | 1016 hPa | 0 mm | - | 87 W/m² | - |
| 1777512045 | 19.44° C | 63% | 1016 hPa | 0 mm | - | 97 W/m² | - |
| 1777511743 | 20° C | 63% | 1015.8 hPa | 0 mm | - | 109 W/m² | - |
| 1777511440 | 20° C | 63% | 1015.8 hPa | 0 mm | - | 145 W/m² | - |
| 1777511137 | 20° C | 63% | 1015.8 hPa | 0 mm | - | 150 W/m² | - |
| 1777510832 | 20.56° C | 61% | 1016 hPa | 0 mm | - | 101 W/m² | - |
| 1777510530 | 20.56° C | 60% | 1015.9 hPa | 0 mm | - | 132 W/m² | - |
| 1777510226 | 21.11° C | 59% | 1015.9 hPa | 0 mm | - | 169 W/m² | - |
| 1777509922 | 21.67° C | 58% | 1015.7 hPa | 0 mm | - | 143 W/m² | - |
| 1777509618 | 21.11° C | 57% | 1015.8 hPa | 0 mm | - | 228 W/m² | - |
| 1777509012 | 22.22° C | 56% | 1015.8 hPa | 0 mm | - | 280 W/m² | - |
| 1777508709 | 22.22° C | 56% | 1015.8 hPa | 0 mm | - | 280 W/m² | - |
| 1777508406 | 22.22° C | 54% | 1015.5 hPa | 0 mm | - | 286 W/m² | - |
| 1777508103 | 22.22° C | 54% | 1015.6 hPa | 0 mm | - | 310 W/m² | - |
| 1777507800 | 22.22° C | 54% | 1015.9 hPa | 0 mm | - | 321 W/m² | - |
* Rain latest hour (hover to see other rain measurements)
** Current wind speed in m/s (hover to see current wind gust speed)